Location: Sweet Grass
(48.9965°N, 111.9649°W)
Time: 08:17:48
(UTC+00:00)

EO-79 - Pass Details

Date: 02 April 2023
Orbit: 578 x 593 km, 98.0° (Epoch: 02 June)

Event Time Altitude Azimuth Distance (km) Brightness Sun altitude
Rises 10:45:06 0° 4° (N) 2,833 ? -21.7°
Reaches altitude 10° 10:47:32 10° 351° (N) 1,923 ? -21.4°
Enters shadow 10:50:30 25° 307° (NW) 1,206 ? -21.0°
